Content
SEND FEEDBACK

Daily
Averages
Monthly
Summary
United States of America

LAKE GEORGE, NEW YORK


Home > North America > United States > New York
Elevation: 321 feet     Latitude: 43 21N     Longitude: 073 37W

WEATHER
 
SELECT A DAY
Number of Records: 212,733;   Date Range: 1/1/95 - 7/7/14
 
SHARE

PRINT THIS DATA

[ ← Previous Day ]
WEATHER ALMANAC - JANUARY 24, 2013
[ Next Day → ]
[ °C ]   °F
Weather ElementAverageHighLow
Temperature2.5 °F17.1 °F (2:53 pm)-11 °F (5:53 am)
Dewpoint-12 °F-8 °F (9:53 am)-16.1 °F (5:53 am)
Humidity55.4 %83 % (2:53 am)26 % (2:53 pm)
Barometer30.29 in30.41 in (11:53 pm)30.21 in (3:53 am)
Wind Speed3.9 mph10.4 mph (1:53 pm)
Wind Gust19.6 mph (4:53 pm)
Weather ElementAverage
Visibility10 mi
Wind DirectionSSE (159.6 °)

Weather ElementTotal
Precipitation---
Heating Degree Days62 (Base 65)
Averaged from 23 records on January 24, 2013
WEATHER CONDITIONS BREAKOUT
WIND DIRECTION BREAKOUT
WEATHER BY HOUR - JANUARY 24, 2013
[ °C ]   °F
Local TimeTemperatureDewpointHumidityBarometerVisibilityWind DirectionWind SpeedGust SpeedPrecipitationEventsConditions
1:53 AM-6.0 °F-11.9 °F75 %30.22 in10.0 miCalmClear
2:53 AM-9.0 °F-13.0 °F83 %30.22 in10.0 miCalmClear
3:53 AM-9.0 °F-14.1 °F79 %30.21 in10.0 miCalmClear
4:53 AM-9.9 °F-15.0 °F78 %30.22 in10.0 miCalmClear
5:53 AM-11.0 °F-16.1 °F78 %30.23 in10.0 miCalmClear
6:53 AM-9.9 °F-15.0 °F78 %30.25 in10.0 miCalmClear
7:53 AM-9.0 °F-14.1 °F79 %30.27 in10.0 miCalmClear
8:53 AM-2.9 °F-9.0 °F75 %30.28 in10.0 miSSW (210°)3.5 mphClear
9:53 AM1.9 °F-8.0 °F63 %30.28 in10.0 miSSW (200°)5.8 mphOvercast
10:53 AM5.0 °F-8.0 °F55 %30.28 in10.0 miCalmPartly Cloudy
11:53 AM10.0 °F-8.0 °F44 %30.27 in10.0 miWNW (300°)6.9 mphClear
12:53 PM12.9 °F-13.0 °F31 %30.24 in10.0 miNorth (350°)9.2 mphClear
1:53 PM16.0 °F-11.9 °F28 %30.22 in10.0 miNNW (340°)10.4 mph17.3 mphClear
2:53 PM17.1 °F-13.0 °F26 %30.23 in10.0 miNNW (330°)10.4 mphClear
3:53 PM16.0 °F-11.9 °F28 %30.26 in10.0 miNNW (340°)10.4 mphClear
4:53 PM14.0 °F-14.1 °F28 %30.29 in10.0 miWNW (300°)10.4 mph19.6 mphClear
5:53 PM10.9 °F-15.0 °F30 %30.32 in10.0 miNNW (330°)5.8 mphClear
6:53 PM10.0 °F-14.1 °F33 %30.35 in10.0 miNNW (330°)5.8 mphClear
7:53 PM7.0 °F-13.0 °F40 %30.38 in10.0 miNNW (340°)5.8 mphClear
8:53 PM3.0 °F-9.0 °F57 %30.38 in10.0 miCalmClear
9:53 PM1.0 °F-9.9 °F60 %30.39 in10.0 miCalmClear
10:53 PM1.9 °F-9.9 °F58 %30.39 in10.0 miCalmClear
11:53 PM-2.0 °F-9.9 °F69 %30.41 in10.0 miWNW (300°)4.6 mphClear
Hourly data recorded from KGFL, located miles away from Lake George, New York







STORIES FROM OUR PARTNERS